Location: �terpigny
(49.8910°N, 2.9249°E)
Time: 19:22:43
(UTC+00:00)

Cosmos 2173 Rocket - Pass Details

Date: 24 October 2021
Orbit: 945 x 1000 km, 83.0° (Epoch: 07 December)

Event Time Altitude Azimuth Distance (km) Brightness Sun altitude
Rises 18:31:39 0° 162° (SSE) 3,638 6.8 -18.7°
Reaches altitude 10° 18:34:16 10° 155° (SSE) 2,704 6.0 -19.1°
Maximum altitude 18:39:59 41° 88° (E) 1,397 4.3 -20.0°
Drops below altitude 10° 18:45:47 10° 21° (NNE) 2,757 6.2 -21.0°
Sets 18:48:28 0° 15° (NNE) 3,717 7.0 -21.4°
